| time (UTC) | temp F | wind direction | speed knots | gust knots | rain 1hr in | rain 24hr in | rain mn in | humidity % | barometer mb |
| 20260504110508 | 57 | 211 | 4.3 | 7.8 | 0.00 | 0.07 | 0.30 | ||
| 20260504100307 | 56 | 222 | 6.1 | 8.7 | 0.00 | 0.07 | 0.30 | ||
| 20260504081107 | 58 | 307 | 9.6 | 12.2 | 0.02 | 0.07 | 0.09 | ||
| 20260504050707 | 57 | 191 | 2.6 | 5.2 | 0.00 | 0.07 | 0.00 | ||
| 20260504045707 | 57 | 214 | 2.6 | 5.2 | 0.00 | 0.00 | 0.07 | ||
| 20260504044637 | 57 | 211 | 2.6 | 4.3 | 0.00 | 0.00 | 0.07 | ||
| 20260504043637 | 56 | 225 | 0.9 | 4.3 | 0.00 | 0.00 | 0.07 | ||
| 20260504042607 | 55 | 150 | 0.9 | 3.5 | 0.00 | 0.00 | 0.07 | ||
| 20260504041537 | 55 | 68 | 1.7 | 5.2 | 0.00 | 0.00 | 0.07 | ||
| 20260504040537 | 56 | 65 | 1.7 | 4.3 | 0.00 | 0.00 | 0.07 | ||
| 20260504035537 | 57 | 179 | 1.7 | 7.0 | 0.00 | 0.00 | 0.07 | ||
| 20260504034507 | 57 | 111 | 5.2 | 7.0 | 0.00 | 0.00 | 0.07 | ||
| 20260504033437 | 58 | 91 | 5.2 | 8.7 | 0.00 | 0.00 | 0.07 | ||
| 20260504032437 | 59 | 84 | 4.3 | 11.3 | 0.00 | 0.00 | 0.07 | ||
| 20260504031437 | 60 | 66 | 7.0 | 13.9 | 0.00 | 0.00 | 0.07 | ||
| 20260504030407 | 60 | 23 | 5.2 | 7.8 | 0.00 | 0.00 | 0.07 | ||
| 20260504025407 | 60 | 191 | 0.9 | 6.1 | 0.05 | 0.00 | 0.07 | ||
| 20260504024337 | 59 | 211 | 2.6 | 5.2 | 0.07 | 0.00 | 0.07 | ||
| 20260504023307 | 59 | 177 | 2.6 | 7.0 | 0.07 | 0.00 | 0.07 | ||
| 20260504022307 | 59 | 229 | 4.3 | 6.1 | 0.07 | 0.00 | 0.07 | ||
| 20260504021307 | 60 | 217 | 3.5 | 7.0 | 0.07 | 0.00 | 0.07 | ||
| 20260504020307 | 60 | 222 | 3.5 | 11.3 | 0.07 | 0.00 | 0.07 | ||
| 20260504015307 | 63 | 240 | 5.2 | 7.8 | 0.02 | 0.00 | 0.02 | ||
| 20260504014307 | 63 | 259 | 1.7 | 9.6 | 0.00 | 0.00 | 0.00 | ||
| 20260504013237 | 63 | 240 | 5.2 | 11.3 | 0.00 | 0.00 | 0.00 | ||
| 20260504012237 | 63 | 239 | 6.1 | 11.3 | 0.00 | 0.00 | 0.00 | ||
| 20260504011237 | 64 | 255 | 7.8 | 10.4 | 0.00 | 0.00 | 0.00 | ||
| 20260504010237 | 64 | 236 | 5.2 | 9.6 | 0.00 | 0.00 | 0.00 | ||
| 20260504005237 | 64 | 210 | 5.2 | 8.7 | 0.00 | 0.00 | 0.00 | ||
| 20260504004207 | 65 | 195 | 6.1 | 10.4 | 0.00 | 0.00 | 0.00 | ||
| 20260504003207 | 66 | 249 | 4.3 | 9.6 | 0.00 | 0.00 | 0.00 | ||
| 20260504002137 | 67 | 224 | 6.1 | 11.3 | 0.00 | 0.00 | 0.00 | ||
| 20260504001137 | 69 | 257 | 5.2 | 13.9 | 0.00 | 0.00 | 0.00 | ||
| 20260504000107 | 71 | 226 | 6.1 | 13.9 | 0.00 | 0.00 | 0.00 | ||
| 20260503235037 | 72 | 201 | 8.7 | 13.0 | 0.00 | 0.00 | 0.00 | ||
| 20260503234007 | 72 | 229 | 8.7 | 14.8 | 0.00 | 0.00 | 0.00 | ||
| 20260503232937 | 73 | 240 | 7.0 | 12.2 | 0.00 | 0.00 | 0.00 | ||
| 20260503231907 | 74 | 246 | 6.1 | 12.2 | 0.00 | 0.00 | 0.00 | ||
| 20260503230907 | 74 | 212 | 6.1 | 13.9 | 0.00 | 0.00 | 0.00 | ||
| 20260503225907 | 73 | 250 | 8.7 | 13.9 | 0.00 | 0.00 | 0.00 | ||
| 20260503224837 | 74 | 250 | 7.0 | 14.8 | 0.00 | 0.00 | 0.00 | ||
| 20260503223807 | 73 | 235 | 6.1 | 18.2 | 0.00 | 0.00 | 0.00 | ||
| 20260503222737 | 73 | 232 | 8.7 | 19.1 | 0.00 | 0.00 | 0.00 | ||
| 20260503221737 | 72 | 250 | 10.4 | 21.7 | 0.00 | 0.00 | 0.00 | ||
| 20260503220707 | 73 | 219 | 10.4 | 20.9 | 0.00 | 0.00 | 0.00 | ||
| 20260503215706 | 73 | 211 | 12.2 | 19.1 | 0.00 | 0.00 | 0.00 | ||
| 20260503214636 | 72 | 252 | 10.4 | 18.2 | 0.00 | 0.00 | 0.00 | ||
| 20260503213636 | 72 | 225 | 8.7 | 20.0 | 0.00 | 0.00 | 0.00 | ||
| 20260503212606 | 69 | 246 | 9.6 | 22.6 | 0.00 | 0.00 | 0.00 | ||
| 20260503211606 | 70 | 232 | 9.6 | 21.7 | 0.00 | 0.00 | 0.00 | ||
| 20260503210536 | 72 | 242 | 9.6 | 23.5 | 0.00 | 0.00 | 0.00 | ||
| 20260503205506 | 71 | 222 | 13.9 | 21.7 | 0.00 | 0.00 | 0.00 | ||
| 20260503204506 | 72 | 208 | 11.3 | 24.3 | 0.00 | 0.00 | 0.00 | ||
| 20260503203436 | 72 | 233 | 7.0 | 17.4 | 0.00 | 0.00 | 0.00 | ||
| 20260503202436 | 70 | 186 | 15.6 | 24.3 | 0.00 | 0.00 | 0.00 | ||
| 20260503201406 | 71 | 226 | 11.3 | 21.7 | 0.00 | 0.00 | 0.00 | ||
| 20260503200336 | 71 | 218 | 11.3 | 21.7 | 0.00 | 0.00 | 0.00 | ||
| 20260503195336 | 71 | 238 | 11.3 | 22.6 | 0.00 | 0.00 | 0.00 | ||
| 20260503194306 | 69 | 271 | 9.6 | 17.4 | 0.00 | 0.00 | 0.00 | ||
| 20260503193306 | 71 | 235 | 7.8 | 21.7 | 0.00 | 0.00 | 0.00 | ||
| 20260503192306 | 71 | 218 | 8.7 | 19.1 | 0.00 | 0.00 | 0.00 | ||
| 20260503191236 | 70 | 246 | 8.7 | 19.1 | 0.00 | 0.00 | 0.00 | ||
| 20260503190236 | 69 | 232 | 9.6 | 20.0 | 0.00 | 0.00 | 0.00 | ||
| 20260503185236 | 69 | 249 | 9.6 | 20.0 | 0.00 | 0.00 | 0.00 | ||
| 20260503184206 | 69 | 224 | 7.8 | 20.9 | 0.00 | 0.00 | 0.00 | ||
| 20260503183136 | 69 | 253 | 9.6 | 19.1 | 0.00 | 0.00 | 0.00 | ||
| 20260503182136 | 68 | 231 | 9.6 | 18.2 | 0.00 | 0.00 | 0.00 | ||
| 20260503181136 | 67 | 222 | 11.3 | 19.1 | 0.00 | 0.00 | 0.00 | ||
| 20260503180106 | 67 | 236 | 11.3 | 24.3 | 0.00 | 0.00 | 0.00 | ||
| 20260503175106 | 67 | 228 | 9.6 | 24.3 | 0.00 | 0.00 | 0.00 | ||
| 20260503174036 | 66 | 231 | 10.4 | 20.9 | 0.00 | 0.00 | 0.00 | ||
| 20260503173036 | 66 | 233 | 9.6 | 19.1 | 0.00 | 0.00 | 0.00 | ||
| 20260503172036 | 65 | 235 | 8.7 | 19.1 | 0.00 | 0.00 | 0.00 | ||
| 20260503171036 | 65 | 264 | 12.2 | 22.6 | 0.00 | 0.00 | 0.00 | ||
| 20260503150606 | 58 | 233 | 7.8 | 19.1 | 0.00 | 0.00 | 0.00 | ||
| 20260503131306 | 51 | 228 | 8.7 | 13.0 | 0.00 | 0.00 | 0.00 | ||
| 20260503130236 | 50 | 242 | 7.0 | 12.2 | 0.00 | 0.00 | 0.00 | ||
| 20260503120106 | 46 | 211 | 7.8 | 12.2 | 0.00 | 0.00 | 0.00 |